Regional Weather Roundup
Issued by NWS

Home | Current Version | Previous Version | Text Only | Print | Product List | Glossary Off
Versions: 1 2 3 4 5 6 7 8 9 10 11 12 13 14 15 16 17 18 19 20 21 22 23 24 25 26 27 28 29 30 31 32 33 34 35 36 37 38 39 40 41 42 43 44 45 46 47 48 49 50

681
ASUS43 KFSD 142002
RWRSD

WEATHER ROUNDUP FOR SOUTH DAKOTA
NATIONAL WEATHER SERVICE SIOUX FALLS SD
200 PM CST SUN FEB 14 2016

NOTE: "FAIR" INDICATES FEW OR NO CLOUDS BELOW 12,000 FEET WITH NO
SIGNIFICANT WEATHER AND/OR OBSTRUCTIONS TO VISIBILITY.


SDZ001>005-009-010-012>017-142100-
NORTHWEST AND NORTH CENTRAL SOUTH DAKOTA

CITY           SKY/WX    TMP DP  RH WIND       PRES   REMARKS
BUFFALO          N/A     37  33  85 W22       29.70F
FAITH            N/A     37  30  75 W17       29.75F
MOBRIDGE       PTSUNNY   38  30  73 W9        29.71F
$$

SDZ012>016-024>037-041>051-057-063-072>074-142100-
SOUTHWEST AND SOUTH CENTRAL SOUTH DAKOTA

CITY           SKY/WX    TMP DP  RH WIND       PRES   REMARKS
RAPID CTY ARPT CLOUDY    39  31  72 N14       29.78F
PIERRE         CLOUDY    38  30  73 NW10      29.76S
CUSTER         LGT SNOW  32  26  78 NW10G37   29.76F WCI  24
ELLSWORTH AFB  LGT RAIN  37  34  87 N12       29.78S
PHILIP         CLOUDY    43  31  62 NW16      29.79S
PINE RIDGE     CLOUDY    41  25  53 W12       29.82S
WINNER         FAIR      45  30  55 NW13      29.77F
$$

SDZ004>011-016>023-039-040-142100-
NORTHEAST SOUTH DAKOTA

CITY           SKY/WX    TMP DP  RH WIND       PRES   REMARKS
ABERDEEN       CLOUDY    24  19  81 SW9       29.77S WCI  14
WATERTOWN      CLOUDY    18  13  80 S15       29.75F WCI   4
BROOKINGS      CLOUDY    20  14  77 S10       29.78S WCI   9
SISSETON         N/A     19  13  77 S13       29.78F WCI   6
$$

SDZ017-020-022-023-036>040-048>070-142100-
SOUTHEAST SOUTH DAKOTA

CITY           SKY/WX    TMP DP  RH WIND       PRES   REMARKS
SIOUX FALLS    CLOUDY    20  15  81 S3        29.80F
HURON          CLOUDY    24  19  81 S9        29.78F WCI  14
MITCHELL       CLOUDY    25  21  85 S6        29.81F WCI  18
YANKTON        CLOUDY    27  19  74 NW5       29.82S WCI  21
$$

ABBREVIATIONS USED IN REMARKS
   TC - TEMPERATURE IN CELSIUS
  WCI - WIND CHILL INDEX
   HX - HEAT INDEX
  VSB - VISIBILITY





USA.gov is the U.S. government's official web portal to all federal, state and local government web resources and services.